User: anonymous   Login
Location: Ostrava
(49.8330°N, 18.2830°E)
Time: 09:25:46
(UTC+02:00)
Language:

ISS - Orbit

View from above orbital plane
View from above orbital plane
View from above satellite
View from above satellite

Ground track
Ground track

The orbit data is extracted from the following two-line orbital elements,

1 25544U 98067A   22279.16453646  .00013833  00000-0  25198-3 0  9993
2 25544  51.6417 146.7668 0003310 259.2687 245.5627 15.49764480362392
Epoch (UTC): 06 October 2022 03:56:55
Eccentricity: 0.0003310
inclination: 51.6417°
perigee height: 415 km
apogee height: 419 km
right ascension of ascending node: 146.7668°
argument of perigee: 259.2687°
revolutions per day: 15.49764480
mean anomaly at epoch: 245.5627°
orbit number at epoch: 36239

The dashed part of the orbit path shows where the satellite is in the earth's shadow,  

DLR